{"data":{"norad_id":64768,"epoch":"2026-05-24T23:42:34.261056Z","epoch_age_seconds":69905,"freshness":"FRESH","line1":"1 64768U 25147P   26144.98789654  .00016660  00000+0  57314-3 0  9994","line2":"2 64768  53.1581 238.3950 0001321  76.4818 283.6329 15.30212535 50574","mean_motion":15.30212535,"eccentricity":0.0001321,"inclination_deg":53.1581,"raan_deg":238.395,"arg_perigee_deg":76.4818,"mean_anomaly_deg":283.6329,"bstar":0.00057314,"rev_number":5057,"period_min":94.104574826268,"perigee_km":474.27231956,"apogee_km":476.08296528853,"semimajor_km":6853.3146424243,"source":"CELESTRAK","updated_at":"2026-05-25T13:38:20.556623Z"}}